Location: Basses Si�yes
(44.0835°N, 6.2037°E)
Time: 19:40:08
(UTC+00:00)

Gbstr 26 Del rocket - Pass Details

Date: 27 February 2020
Orbit: 492 x 1264 km, 51.8° (Epoch: 29 March)

Event Time Altitude Azimuth Distance (km) Brightness Sun altitude
Rises 18:53:33 0° 254° (WSW) 2,647 7.6 -17.5°
Reaches altitude 10° 18:55:38 10° 260° (W) 1,817 6.6 -17.9°
Maximum altitude 18:59:38 53° 338° (NNW) 754 3.6 -18.6°
Enters shadow 19:02:07 25° 45° (NE) 1,315 4.4 -19.1°
